User: anonymous   Login
Location: Theydon Bois
(51.6750°N, 0.1050°E)
Time: 13:29:22
(UTC+00:00)
Language:

Timation 2 Rocket - Orbit

View from above orbital plane
View from above orbital plane
View from above satellite
View from above satellite

Ground track
Ground track

The orbit data is extracted from the following two-line orbital elements,

1  4159U 69082AB  17344.90126562 -.00000033 +00000-0 +18308-4 0  9995
2  4159 069.9606 152.7249 0117863 231.0430 128.0115 13.72387049411880
Epoch (UTC): 10 December 2017 21:37:49
Eccentricity: 0.0117863
inclination: 69.9606°
perigee height: 904 km
apogee height: 1078 km
right ascension of ascending node: 152.7249°
argument of perigee: 231.0430°
revolutions per day: 13.72387049
mean anomaly at epoch: 128.0115°
orbit number at epoch: 41188

The dashed part of the orbit path shows where the satellite is in the earth's shadow,  

DLR